Time,TemperatureF,DewpointF,PressureIn,WindDirection,WindDirectionDegrees,WindSpeedMPH,WindSpeedGustMPH,Humidity,HourlyPrecipIn,Conditions,Clouds,dailyrainin,SolarRadiationWatts/m^2,SoftwareType,DateUTC
2013-07-02 00:01:00,70.7,69.8,30.12,SE,127,0.0,0.0,97,0.00,,,0.00,0,Wunderground v.1.15,2013-07-02 04:01:00,
2013-07-02 00:02:00,70.7,69.8,30.12,SE,134,0.0,0.0,97,0.00,,,0.00,0,Wunderground v.1.15,2013-07-02 04:02:00,
2013-07-02 00:04:00,70.7,69.8,30.12,SSW,193,1.0,1.0,97,0.00,,,0.00,0,Wunderground v.1.15,2013-07-02 04:04:00,
2013-07-02 00:05:00,70.7,69.8,30.12,SSW,193,1.0,1.0,97,0.00,,,0.00,0,Wunderground v.1.15,2013-07-02 04:05:00,
2013-07-02 00:07:00,70.7,69.8,30.12,South,178,0.0,1.0,97,0.00,,,0.00,0,Wunderground v.1.15,2013-07-02 04:07:00,
2013-07-02 00:16:00,70.7,69.8,30.12,SSW,192,0.0,2.0,97,0.00,,,0.00,0,Wunderground v.1.15,2013-07-02 04:16:00,
2013-07-02 00:21:00,70.6,69.7,30.12,South,188,1.0,1.0,97,0.00,,,0.00,0,Wunderground v.1.15,2013-07-02 04:21:00,
2013-07-02 00:27:00,70.5,69.6,30.12,SSE,165,1.0,1.0,97,0.00,,,0.00,0,Wunderground v.1.15,2013-07-02 04:27:00,
2013-07-02 00:32:00,70.4,69.5,30.12,South,186,1.0,2.0,97,0.00,,,0.00,0,Wunderground v.1.15,2013-07-02 04:32:00,
2013-07-02 00:38:00,70.3,69.4,30.12,WSW,248,1.0,2.0,97,0.00,,,0.00,0,Wunderground v.1.15,2013-07-02 04:38:00,
2013-07-02 00:44:00,70.3,69.4,30.12,South,184,0.0,1.0,97,0.00,,,0.00,0,Wunderground v.1.15,2013-07-02 04:44:00,
2013-07-02 00:51:00,70.3,69.4,30.12,SSW,210,0.0,0.0,97,0.00,,,0.00,0,Wunderground v.1.15,2013-07-02 04:51:00,
2013-07-02 00:56:00,70.3,69.4,30.12,South,175,1.0,1.0,97,0.00,,,0.00,0,Wunderground v.1.15,2013-07-02 04:56:00,
2013-07-02 01:02:00,70.2,69.3,30.12,SSW,203,1.0,1.0,97,0.00,,,0.00,0,Wunderground v.1.15,2013-07-02 05:02:00,
2013-07-02 01:07:00,70.2,69.3,30.12,South,188,1.0,3.0,97,0.00,,,0.00,0,Wunderground v.1.15,2013-07-02 05:07:00,
2013-07-02 01:12:00,70.1,69.2,30.12,South,188,1.0,2.0,97,0.00,,,0.00,0,Wunderground v.1.15,2013-07-02 05:12:00,
2013-07-02 01:19:00,70.1,69.2,30.12,South,184,1.0,2.0,97,0.00,,,0.00,0,Wunderground v.1.15,2013-07-02 05:19:00,
2013-07-02 01:26:00,70.1,69.2,30.12,ESE,123,1.0,1.0,97,0.00,,,0.00,0,Wunderground v.1.15,2013-07-02 05:26:00,
2013-07-02 01:31:00,70.1,69.2,30.13,SSE,157,1.0,1.0,97,0.00,,,0.00,0,Wunderground v.1.15,2013-07-02 05:31:00,
2013-07-02 01:36:00,70.1,69.2,30.12,SSE,168,0.0,2.0,97,0.00,,,0.00,0,Wunderground v.1.15,2013-07-02 05:36:00,
2013-07-02 01:42:00,70.1,69.2,30.13,SSE,155,0.0,1.0,97,0.00,,,0.00,0,Wunderground v.1.15,2013-07-02 05:42:00,
2013-07-02 01:48:00,70.1,69.2,30.13,SSE,157,0.0,1.0,97,0.00,,,0.00,0,Wunderground v.1.15,2013-07-02 05:48:00,
2013-07-02 01:54:00,70.1,69.2,30.13,South,180,0.0,0.0,97,0.00,,,0.00,0,Wunderground v.1.15,2013-07-02 05:54:00,
2013-07-02 02:01:00,70.1,69.2,30.13,South,188,0.0,2.0,97,0.00,,,0.00,0,Wunderground v.1.15,2013-07-02 06:01:00,
2013-07-02 02:07:00,70.1,69.2,30.13,SSW,213,0.0,2.0,97,0.00,,,0.00,0,Wunderground v.1.15,2013-07-02 06:07:00,
2013-07-02 02:14:00,70.1,69.2,30.13,South,184,1.0,2.0,97,0.00,,,0.00,0,Wunderground v.1.15,2013-07-02 06:14:00,
2013-07-02 02:20:00,70.1,69.2,30.13,South,171,0.0,2.0,97,0.00,,,0.00,0,Wunderground v.1.15,2013-07-02 06:20:00,
2013-07-02 02:25:00,70.1,69.2,30.13,WNW,283,0.0,1.0,97,0.00,,,0.00,0,Wunderground v.1.15,2013-07-02 06:25:00,
2013-07-02 02:30:00,70.1,69.2,30.13,SSW,199,0.0,1.0,97,0.00,,,0.00,0,Wunderground v.1.15,2013-07-02 06:30:00,
2013-07-02 02:36:00,70.1,69.2,30.13,South,182,0.0,1.0,97,0.00,,,0.00,0,Wunderground v.1.15,2013-07-02 06:36:00,
2013-07-02 02:41:00,70.2,69.3,30.13,West,279,0.0,0.0,97,0.00,,,0.00,0,Wunderground v.1.15,2013-07-02 06:41:00,
2013-07-02 02:47:00,70.3,69.4,30.13,SSW,209,0.0,0.0,97,0.00,,,0.00,0,Wunderground v.1.15,2013-07-02 06:47:00,
2013-07-02 02:52:00,70.3,69.4,30.13,SSW,192,0.0,0.0,97,0.00,,,0.00,0,Wunderground v.1.15,2013-07-02 06:52:00,
2013-07-02 02:57:00,70.3,69.4,30.13,SSW,192,0.0,0.0,97,0.00,,,0.00,0,Wunderground v.1.15,2013-07-02 06:57:00,
2013-07-02 03:04:00,70.4,69.5,30.13,ESE,122,0.0,2.0,97,0.00,,,0.00,0,Wunderground v.1.15,2013-07-02 07:04:00,
2013-07-02 03:09:00,70.4,69.5,30.13,SSE,167,0.0,2.0,97,0.00,,,0.00,0,Wunderground v.1.15,2013-07-02 07:09:00,
2013-07-02 03:15:00,70.4,69.8,30.13,South,190,0.0,1.0,98,0.00,,,0.00,0,Wunderground v.1.15,2013-07-02 07:15:00,
2013-07-02 03:20:00,70.4,69.8,30.13,South,178,0.0,0.0,98,0.00,,,0.00,0,Wunderground v.1.15,2013-07-02 07:20:00,
2013-07-02 03:25:00,70.4,69.8,30.13,South,185,0.0,1.0,98,0.00,,,0.00,0,Wunderground v.1.15,2013-07-02 07:25:00,
2013-07-02 03:30:00,70.4,69.8,30.13,South,185,0.0,0.0,98,0.00,,,0.00,0,Wunderground v.1.15,2013-07-02 07:30:00,
2013-07-02 03:35:00,70.4,69.8,30.13,SSE,154,0.0,1.0,98,0.00,,,0.00,0,Wunderground v.1.15,2013-07-02 07:35:00,
2013-07-02 03:41:00,70.4,69.8,30.13,SSE,153,0.0,2.0,98,0.00,,,0.00,0,Wunderground v.1.15,2013-07-02 07:41:00,
2013-07-02 03:47:00,70.4,69.8,30.13,SSE,165,0.0,2.0,98,0.00,,,0.00,0,Wunderground v.1.15,2013-07-02 07:47:00,
2013-07-02 03:53:00,70.4,69.8,30.13,WSW,241,0.0,1.0,98,0.00,,,0.00,0,Wunderground v.1.15,2013-07-02 07:53:00,
2013-07-02 04:00:00,70.5,69.9,30.14,South,190,0.0,0.0,98,0.00,,,0.00,0,Wunderground v.1.15,2013-07-02 08:00:00,
2013-07-02 04:06:00,70.6,70.0,30.14,SE,136,0.0,2.0,98,0.00,,,0.00,0,Wunderground v.1.15,2013-07-02 08:06:00,
2013-07-02 04:11:00,70.6,70.0,30.14,SSW,210,0.0,0.0,98,0.00,,,0.00,0,Wunderground v.1.15,2013-07-02 08:11:00,
2013-07-02 04:16:00,70.6,70.0,30.14,SW,227,0.0,1.0,98,0.00,,,0.00,0,Wunderground v.1.15,2013-07-02 08:16:00,
2013-07-02 04:21:00,70.7,70.1,30.14,SSE,149,0.0,3.0,98,0.00,,,0.00,0,Wunderground v.1.15,2013-07-02 08:21:00,
2013-07-02 04:28:00,70.7,70.4,30.14,SSW,205,1.0,3.0,99,0.00,,,0.00,0,Wunderground v.1.15,2013-07-02 08:28:00,
2013-07-02 04:33:00,70.8,70.5,30.14,SW,218,1.0,2.0,99,0.00,,,0.00,0,Wunderground v.1.15,2013-07-02 08:33:00,
2013-07-02 04:38:00,70.8,70.2,30.14,SSW,209,1.0,2.0,98,0.00,,,0.00,0,Wunderground v.1.15,2013-07-02 08:38:00,
2013-07-02 04:44:00,70.8,70.5,30.14,SSE,165,0.0,1.0,99,0.00,,,0.00,0,Wunderground v.1.15,2013-07-02 08:44:00,
2013-07-02 04:49:00,70.8,70.2,30.14,SSE,155,0.0,1.0,98,0.00,,,0.00,0,Wunderground v.1.15,2013-07-02 08:49:00,
2013-07-02 04:55:00,70.8,70.5,30.14,SSE,165,0.0,1.0,99,0.00,,,0.00,0,Wunderground v.1.15,2013-07-02 08:55:00,
2013-07-02 05:01:00,70.8,70.5,30.14,SSE,147,0.0,0.0,99,0.00,,,0.00,0,Wunderground v.1.15,2013-07-02 09:01:00,
2013-07-02 05:07:00,70.9,70.6,30.14,South,169,0.0,0.0,99,0.00,,,0.00,0,Wunderground v.1.15,2013-07-02 09:07:00,
2013-07-02 05:13:00,70.9,70.6,30.15,SSE,156,0.0,0.0,99,0.00,,,0.00,0,Wunderground v.1.15,2013-07-02 09:13:00,
2013-07-02 05:19:00,70.9,70.6,30.15,SSW,200,0.0,1.0,99,0.00,,,0.00,0,Wunderground v.1.15,2013-07-02 09:19:00,
2013-07-02 05:24:00,70.9,70.6,30.15,South,180,1.0,3.0,99,0.00,,,0.00,0,Wunderground v.1.15,2013-07-02 09:24:00,
2013-07-02 05:30:00,71.0,70.7,30.15,SSE,159,1.0,1.0,99,0.00,,,0.00,0,Wunderground v.1.15,2013-07-02 09:30:00,
2013-07-02 05:35:00,71.0,70.7,30.15,South,170,1.0,1.0,99,0.00,,,0.00,5,Wunderground v.1.15,2013-07-02 09:35:00,
2013-07-02 05:40:00,71.0,70.7,30.15,South,174,1.0,1.0,99,0.00,,,0.00,5,Wunderground v.1.15,2013-07-02 09:40:00,
2013-07-02 05:46:00,71.0,70.7,30.15,SSW,196,0.0,1.0,99,0.00,,,0.00,5,Wunderground v.1.15,2013-07-02 09:46:00,
2013-07-02 05:52:00,71.1,70.8,30.15,SSE,147,0.0,2.0,99,0.00,,,0.00,7,Wunderground v.1.15,2013-07-02 09:52:00,
2013-07-02 05:58:00,71.1,70.8,30.15,SW,214,0.0,2.0,99,0.00,,,0.00,7,Wunderground v.1.15,2013-07-02 09:58:00,
2013-07-02 06:04:00,71.1,70.8,30.16,South,182,0.0,1.0,99,0.00,,,0.00,7,Wunderground v.1.15,2013-07-02 10:04:00,
2013-07-02 06:09:00,71.0,70.7,30.16,SSE,167,0.0,2.0,99,0.00,,,0.00,11,Wunderground v.1.15,2013-07-02 10:09:00,
2013-07-02 06:14:00,71.0,70.4,30.16,South,178,1.0,1.0,98,0.00,,,0.00,12,Wunderground v.1.15,2013-07-02 10:14:00,
2013-07-02 06:19:00,71.0,70.4,30.16,South,169,0.0,3.0,98,0.00,,,0.00,11,Wunderground v.1.15,2013-07-02 10:19:00,
2013-07-02 06:25:00,70.9,70.3,30.16,South,170,0.0,2.0,98,0.00,,,0.00,19,Wunderground v.1.15,2013-07-02 10:25:00,
2013-07-02 06:31:00,70.9,70.3,30.17,SE,143,0.0,2.0,98,0.00,,,0.00,21,Wunderground v.1.15,2013-07-02 10:31:00,
2013-07-02 06:36:00,70.9,70.3,30.17,South,191,0.0,2.0,98,0.00,,,0.00,23,Wunderground v.1.15,2013-07-02 10:36:00,
2013-07-02 06:42:00,70.9,70.3,30.17,SSE,161,0.0,1.0,98,0.00,,,0.00,28,Wunderground v.1.15,2013-07-02 10:42:00,
2013-07-02 06:48:00,70.9,70.3,30.17,SSE,161,0.0,1.0,98,0.00,,,0.00,28,Wunderground v.1.15,2013-07-02 10:48:00,
2013-07-02 06:54:00,71.0,70.4,30.17,SSE,161,0.0,2.0,98,0.00,,,0.00,26,Wunderground v.1.15,2013-07-02 10:54:00,
2013-07-02 07:00:00,71.1,70.5,30.17,SSW,207,0.0,0.0,98,0.00,,,0.00,16,Wunderground v.1.15,2013-07-02 11:00:00,
2013-07-02 07:06:00,71.2,70.9,30.17,SSE,166,0.0,2.0,99,0.00,,,0.00,16,Wunderground v.1.15,2013-07-02 11:06:00,
2013-07-02 07:11:00,71.2,70.9,30.17,SSE,168,1.0,1.0,99,0.00,,,0.00,14,Wunderground v.1.15,2013-07-02 11:11:00,
2013-07-02 07:16:00,71.3,71.0,30.17,ESE,119,1.0,2.0,99,0.00,,,0.00,19,Wunderground v.1.15,2013-07-02 11:16:00,
2013-07-02 07:21:00,71.3,70.7,30.17,South,178,0.0,2.0,98,0.00,,,0.00,19,Wunderground v.1.15,2013-07-02 11:21:00,
2013-07-02 07:26:00,71.3,70.7,30.17,SSE,159,0.0,2.0,98,0.00,,,0.00,23,Wunderground v.1.15,2013-07-02 11:26:00,
2013-07-02 07:32:00,71.3,70.7,30.17,South,170,0.0,0.0,98,0.00,,,0.00,28,Wunderground v.1.15,2013-07-02 11:32:00,
2013-07-02 07:38:00,71.2,70.6,30.17,SSW,212,0.0,0.0,98,0.00,,,0.00,42,Wunderground v.1.15,2013-07-02 11:38:00,
2013-07-02 07:43:00,71.2,70.6,30.17,South,170,0.0,1.0,98,0.00,,,0.00,65,Wunderground v.1.15,2013-07-02 11:43:00,
2013-07-02 07:49:00,71.2,70.6,30.17,South,177,0.0,1.0,98,0.00,,,0.00,76,Wunderground v.1.15,2013-07-02 11:49:00,
2013-07-02 07:54:00,71.3,70.7,30.18,SE,132,0.0,3.0,98,0.00,,,0.00,93,Wunderground v.1.15,2013-07-02 11:54:00,
2013-07-02 07:59:00,71.4,70.8,30.17,South,178,0.0,3.0,98,0.00,,,0.00,91,Wunderground v.1.15,2013-07-02 11:59:00,
2013-07-02 08:05:00,71.5,70.9,30.17,SSW,197,0.0,1.0,98,0.00,,,0.00,104,Wunderground v.1.15,2013-07-02 12:05:00,
2013-07-02 08:11:00,71.7,71.4,30.17,North,11,0.0,0.0,99,0.00,,,0.00,95,Wunderground v.1.15,2013-07-02 12:11:00,
2013-07-02 08:17:00,71.9,71.6,30.17,SSE,159,0.0,1.0,99,0.00,,,0.00,121,Wunderground v.1.15,2013-07-02 12:17:00,
2013-07-02 08:22:00,72.1,71.5,30.17,South,169,0.0,1.0,98,0.00,,,0.00,83,Wunderground v.1.15,2013-07-02 12:22:00,
2013-07-02 08:28:00,72.2,71.6,30.17,South,179,0.0,1.0,98,0.00,,,0.00,90,Wunderground v.1.15,2013-07-02 12:28:00,
2013-07-02 08:34:00,72.2,71.6,30.17,South,190,1.0,2.0,98,0.00,,,0.00,53,Wunderground v.1.15,2013-07-02 12:34:00,
2013-07-02 08:39:00,72.2,71.3,30.17,South,182,0.0,2.0,97,0.00,,,0.00,77,Wunderground v.1.15,2013-07-02 12:39:00,
2013-07-02 08:45:00,72.2,71.3,30.17,South,187,0.0,2.0,97,0.00,,,0.00,153,Wunderground v.1.15,2013-07-02 12:45:00,
2013-07-02 08:51:00,72.2,71.3,30.17,SSE,167,0.0,1.0,97,0.00,,,0.00,156,Wunderground v.1.15,2013-07-02 12:51:00,
2013-07-02 08:57:00,72.4,71.8,30.17,SSW,207,0.0,1.0,98,0.00,,,0.00,123,Wunderground v.1.15,2013-07-02 12:57:00,
2013-07-02 09:02:00,72.6,71.7,30.17,South,180,0.0,1.0,97,0.00,,,0.00,70,Wunderground v.1.15,2013-07-02 13:02:00,
2013-07-02 09:08:00,72.6,71.7,30.17,South,172,0.0,1.0,97,0.00,,,0.00,190,Wunderground v.1.15,2013-07-02 13:08:00,
2013-07-02 09:13:00,72.7,71.8,30.17,WNW,300,0.0,2.0,97,0.00,,,0.00,100,Wunderground v.1.15,2013-07-02 13:13:00,
2013-07-02 09:21:00,72.9,72.0,30.17,SSW,194,1.0,1.0,97,0.00,,,0.00,120,Wunderground v.1.15,2013-07-02 13:21:00,
2013-07-02 09:28:00,73.0,72.1,30.17,South,182,1.0,3.0,97,0.00,,,0.00,118,Wunderground v.1.15,2013-07-02 13:28:00,
2013-07-02 09:33:00,73.0,71.8,30.17,South,170,1.0,1.0,96,0.00,,,0.00,142,Wunderground v.1.15,2013-07-02 13:33:00,
2013-07-02 09:38:00,73.0,71.8,30.18,SE,138,1.0,2.0,96,0.00,,,0.00,86,Wunderground v.1.15,2013-07-02 13:38:00,
2013-07-02 09:43:00,73.0,71.8,30.18,ESE,119,1.0,2.0,96,0.00,,,0.00,114,Wunderground v.1.15,2013-07-02 13:43:00,
2013-07-02 09:48:00,72.9,71.7,30.18,SW,230,1.0,3.0,96,0.00,,,0.00,91,Wunderground v.1.15,2013-07-02 13:48:00,
2013-07-02 09:56:00,72.9,71.7,30.18,SSE,153,0.0,1.0,96,0.00,,,0.00,90,Wunderground v.1.15,2013-07-02 13:56:00,
2013-07-02 10:03:00,73.0,71.8,30.18,SSE,168,0.0,2.0,96,0.00,,,0.00,113,Wunderground v.1.15,2013-07-02 14:03:00,
2013-07-02 10:08:00,73.0,71.8,30.18,SSE,161,0.0,2.0,96,0.00,,,0.00,116,Wunderground v.1.15,2013-07-02 14:08:00,
2013-07-02 10:14:00,73.2,72.0,30.18,SW,223,0.0,1.0,96,0.00,,,0.00,116,Wunderground v.1.15,2013-07-02 14:14:00,
2013-07-02 10:20:00,73.3,72.1,30.18,SSE,156,0.0,0.0,96,0.00,,,0.00,127,Wunderground v.1.15,2013-07-02 14:20:00,
2013-07-02 10:25:00,73.4,72.2,30.18,SE,146,0.0,2.0,96,0.00,,,0.00,79,Wunderground v.1.15,2013-07-02 14:25:00,
2013-07-02 10:31:00,73.4,72.2,30.18,WNW,297,1.0,1.0,96,0.00,,,0.00,139,Wunderground v.1.15,2013-07-02 14:31:00,
2013-07-02 10:36:00,73.5,72.3,30.18,SW,223,0.0,1.0,96,0.00,,,0.00,165,Wunderground v.1.15,2013-07-02 14:36:00,
2013-07-02 10:41:00,73.5,72.0,30.18,South,174,1.0,1.0,95,0.00,,,0.00,109,Wunderground v.1.15,2013-07-02 14:41:00,
2013-07-02 10:46:00,73.5,72.0,30.18,SSE,156,1.0,2.0,95,0.00,,,0.00,95,Wunderground v.1.15,2013-07-02 14:46:00,
2013-07-02 10:52:00,73.6,72.4,30.18,South,188,0.0,3.0,96,0.00,,,0.00,160,Wunderground v.1.15,2013-07-02 14:52:00,
2013-07-02 10:57:00,73.8,72.6,30.18,SSW,194,1.0,3.0,96,0.00,,,0.00,206,Wunderground v.1.15,2013-07-02 14:57:00,
2013-07-02 11:06:00,73.7,72.5,30.18,SW,221,1.0,1.0,96,0.00,,,0.00,209,Wunderground v.1.15,2013-07-02 15:06:00,
2013-07-02 11:11:00,74.1,72.9,30.18,NNW,331,1.0,1.0,96,0.00,,,0.00,185,Wunderground v.1.15,2013-07-02 15:11:00,
2013-07-02 11:17:00,74.5,73.0,30.18,SSW,209,0.0,2.0,95,0.00,,,0.00,241,Wunderground v.1.15,2013-07-02 15:17:00,
2013-07-02 11:22:00,75.1,73.3,30.18,WSW,250,0.0,1.0,94,0.00,,,0.00,278,Wunderground v.1.15,2013-07-02 15:22:00,
2013-07-02 11:28:00,75.5,73.3,30.18,SE,138,1.0,2.0,93,0.00,,,0.00,385,Wunderground v.1.15,2013-07-02 15:28:00,
2013-07-02 11:34:00,75.8,73.0,30.18,SSW,196,1.0,4.0,91,0.00,,,0.00,336,Wunderground v.1.15,2013-07-02 15:34:00,
2013-07-02 11:41:00,76.5,74.0,30.18,South,182,1.0,2.0,92,0.00,,,0.00,330,Wunderground v.1.15,2013-07-02 15:41:00,
2013-07-02 11:46:00,77.3,74.1,30.18,SE,140,1.0,3.0,90,0.00,,,0.00,406,Wunderground v.1.15,2013-07-02 15:46:00,
2013-07-02 11:52:00,77.7,74.2,30.18,South,189,1.0,1.0,89,0.00,,,0.00,318,Wunderground v.1.15,2013-07-02 15:52:00,
2013-07-02 12:02:00,78.4,74.9,30.18,West,277,1.0,2.0,89,0.00,,,0.00,302,Wunderground v.1.15,2013-07-02 16:02:00,
2013-07-02 12:09:00,78.1,73.6,30.18,NNW,346,1.0,3.0,86,0.00,,,0.00,313,Wunderground v.1.15,2013-07-02 16:09:00,
2013-07-02 12:16:00,77.6,73.8,30.18,SE,132,2.0,2.0,88,0.00,,,0.00,295,Wunderground v.1.15,2013-07-02 16:16:00,
2013-07-02 12:22:00,77.3,73.8,30.18,South,185,1.0,2.0,89,0.00,,,0.00,297,Wunderground v.1.15,2013-07-02 16:22:00,
2013-07-02 12:30:00,77.2,73.4,30.18,South,182,1.0,1.0,88,0.00,,,0.00,366,Wunderground v.1.15,2013-07-02 16:30:00,
2013-07-02 12:36:00,77.4,73.6,30.18,SE,139,2.0,5.0,88,0.00,,,0.00,345,Wunderground v.1.15,2013-07-02 16:36:00,
2013-07-02 12:44:00,78.4,74.5,30.18,SE,142,1.0,3.0,88,0.00,,,0.00,279,Wunderground v.1.15,2013-07-02 16:44:00,
2013-07-02 12:51:00,77.8,74.0,30.19,SE,139,1.0,2.0,88,0.00,,,0.00,251,Wunderground v.1.15,2013-07-02 16:51:00,
2013-07-02 12:58:00,78.2,74.0,30.18,South,171,1.0,4.0,87,0.00,,,0.00,408,Wunderground v.1.15,2013-07-02 16:58:00,
2013-07-02 13:03:00,78.7,74.2,30.18,South,169,1.0,3.0,86,0.00,,,0.00,343,Wunderground v.1.15,2013-07-02 17:03:00,
2013-07-02 13:12:00,77.9,73.7,30.18,SSW,201,1.0,1.0,87,0.00,,,0.00,292,Wunderground v.1.15,2013-07-02 17:12:00,
2013-07-02 13:19:00,77.7,73.9,30.18,South,175,1.0,2.0,88,0.00,,,0.00,325,Wunderground v.1.15,2013-07-02 17:19:00,
2013-07-02 13:26:00,77.9,73.7,30.19,South,180,1.0,2.0,87,0.00,,,0.00,227,Wunderground v.1.15,2013-07-02 17:26:00,
2013-07-02 13:32:00,77.2,73.0,30.19,SSE,159,1.0,1.0,87,0.00,,,0.00,225,Wunderground v.1.15,2013-07-02 17:32:00,
2013-07-02 13:37:00,77.4,74.2,30.19,SW,229,0.0,2.0,90,0.00,,,0.00,207,Wunderground v.1.15,2013-07-02 17:37:00,
2013-07-02 13:43:00,77.9,74.4,30.18,SSW,194,0.0,1.0,89,0.00,,,0.00,262,Wunderground v.1.15,2013-07-02 17:43:00,
2013-07-02 13:48:00,78.4,74.2,30.18,SW,225,0.0,1.0,87,0.00,,,0.00,285,Wunderground v.1.15,2013-07-02 17:48:00,
2013-07-02 13:54:00,79.1,74.5,30.18,South,178,1.0,2.0,86,0.00,,,0.00,316,Wunderground v.1.15,2013-07-02 17:54:00,
2013-07-02 14:01:00,79.2,74.3,30.18,SSE,160,1.0,1.0,85,0.00,,,0.00,346,Wunderground v.1.15,2013-07-02 18:01:00,
2013-07-02 14:06:00,78.8,73.6,30.18,SE,136,1.0,3.0,84,0.00,,,0.00,346,Wunderground v.1.15,2013-07-02 18:06:00,
2013-07-02 14:11:00,78.6,74.1,30.18,SE,138,1.0,1.0,86,0.00,,,0.00,292,Wunderground v.1.15,2013-07-02 18:11:00,
2013-07-02 14:17:00,79.4,74.8,30.18,WNW,288,1.0,3.0,86,0.00,,,0.00,327,Wunderground v.1.15,2013-07-02 18:17:00,
2013-07-02 14:23:00,79.5,74.6,30.18,South,171,1.0,3.0,85,0.00,,,0.00,325,Wunderground v.1.15,2013-07-02 18:23:00,
2013-07-02 14:29:00,79.2,74.3,30.18,SSW,210,1.0,3.0,85,0.00,,,0.00,362,Wunderground v.1.15,2013-07-02 18:29:00,
2013-07-02 14:36:00,83.0,75.4,30.18,SE,142,2.0,4.0,78,0.00,,,0.00,223,Wunderground v.1.15,2013-07-02 18:36:00,
2013-07-02 14:41:00,80.2,74.6,30.18,SSE,165,2.0,2.0,83,0.00,,,0.00,258,Wunderground v.1.15,2013-07-02 18:41:00,
2013-07-02 14:46:00,79.6,74.0,30.18,SE,140,1.0,2.0,83,0.00,,,0.00,334,Wunderground v.1.15,2013-07-02 18:46:00,
2013-07-02 14:51:00,78.4,73.2,30.17,South,181,1.0,3.0,84,0.00,,,0.00,178,Wunderground v.1.15,2013-07-02 18:51:00,
2013-07-02 14:57:00,77.6,73.1,30.17,SSE,152,1.0,3.0,86,0.00,,,0.00,267,Wunderground v.1.15,2013-07-02 18:57:00,
2013-07-02 15:03:00,77.4,73.2,30.17,South,181,1.0,2.0,87,0.00,,,0.00,229,Wunderground v.1.15,2013-07-02 19:03:00,
2013-07-02 15:11:00,76.6,72.8,30.17,South,189,1.0,1.0,88,0.00,,,0.00,167,Wunderground v.1.15,2013-07-02 19:11:00,
2013-07-02 15:17:00,75.9,72.4,30.17,SSE,153,1.0,1.0,89,0.00,,,0.00,239,Wunderground v.1.15,2013-07-02 19:17:00,
2013-07-02 15:22:00,76.1,73.0,30.17,SSW,207,1.0,1.0,90,0.00,,,0.00,276,Wunderground v.1.15,2013-07-02 19:22:00,
2013-07-02 15:32:00,76.7,72.9,30.17,SSE,157,1.0,1.0,88,0.00,,,0.00,454,Wunderground v.1.15,2013-07-02 19:32:00,
2013-07-02 15:38:00,76.8,73.0,30.16,WSW,243,1.0,2.0,88,0.00,,,0.00,455,Wunderground v.1.15,2013-07-02 19:38:00,
2013-07-02 15:46:00,76.9,73.4,30.16,South,173,1.0,5.0,89,0.00,,,0.00,462,Wunderground v.1.15,2013-07-02 19:46:00,
2013-07-02 15:52:00,76.2,72.4,30.16,SE,145,1.0,4.0,88,0.00,,,0.00,308,Wunderground v.1.15,2013-07-02 19:52:00,
2013-07-02 15:57:00,76.0,72.2,30.16,SE,146,1.0,4.0,88,0.00,,,0.00,294,Wunderground v.1.15,2013-07-02 19:57:00,
2013-07-02 16:02:00,75.3,71.8,30.16,SE,125,1.0,2.0,89,0.00,,,0.00,183,Wunderground v.1.15,2013-07-02 20:02:00,
2013-07-02 16:07:00,75.0,72.2,30.16,SSE,159,1.0,2.0,91,0.00,,,0.00,200,Wunderground v.1.15,2013-07-02 20:07:00,
2013-07-02 16:13:00,74.9,72.1,30.16,SSE,156,1.0,1.0,91,0.00,,,0.00,178,Wunderground v.1.15,2013-07-02 20:13:00,
2013-07-02 16:21:00,74.8,72.0,30.16,SSE,165,0.0,0.0,91,0.00,,,0.00,216,Wunderground v.1.15,2013-07-02 20:21:00,
2013-07-02 16:27:00,74.6,71.8,30.16,SSE,164,1.0,2.0,91,0.00,,,0.00,149,Wunderground v.1.15,2013-07-02 20:27:00,
2013-07-02 16:32:00,74.8,72.3,30.16,South,171,1.0,1.0,92,0.00,,,0.00,155,Wunderground v.1.15,2013-07-02 20:32:00,
2013-07-02 16:41:00,74.0,71.5,30.16,SSE,149,1.0,1.0,92,0.00,,,0.00,260,Wunderground v.1.15,2013-07-02 20:41:00,
2013-07-02 16:48:00,74.6,72.1,30.16,SSE,149,1.0,1.0,92,0.00,,,0.00,158,Wunderground v.1.15,2013-07-02 20:48:00,
2013-07-02 16:53:00,74.5,72.0,30.17,South,180,0.0,2.0,92,0.00,,,0.00,98,Wunderground v.1.15,2013-07-02 20:53:00,
2013-07-02 16:58:00,73.8,71.3,30.17,South,179,1.0,2.0,92,0.00,,,0.00,171,Wunderground v.1.15,2013-07-02 20:58:00,
2013-07-02 17:04:00,73.7,71.9,30.17,SSE,165,1.0,2.0,94,0.00,,,0.00,243,Wunderground v.1.15,2013-07-02 21:04:00,
2013-07-02 17:09:00,73.9,71.7,30.17,SSE,157,1.0,2.0,93,0.00,,,0.00,178,Wunderground v.1.15,2013-07-02 21:09:00,
2013-07-02 17:17:00,74.1,71.9,30.17,SSE,152,1.0,3.0,93,0.00,,,0.00,220,Wunderground v.1.15,2013-07-02 21:17:00,
2013-07-02 17:23:00,74.2,72.0,30.17,SE,143,1.0,2.0,93,0.00,,,0.00,171,Wunderground v.1.15,2013-07-02 21:23:00,
2013-07-02 17:29:00,74.1,71.9,30.17,SSE,147,1.0,4.0,93,0.00,,,0.00,86,Wunderground v.1.15,2013-07-02 21:29:00,
2013-07-02 17:35:00,73.8,72.0,30.17,SSE,167,0.0,1.0,94,0.00,,,0.00,183,Wunderground v.1.15,2013-07-02 21:35:00,
2013-07-02 17:41:00,74.0,71.8,30.17,WSW,240,1.0,1.0,93,0.00,,,0.00,176,Wunderground v.1.15,2013-07-02 21:41:00,
2013-07-02 17:47:00,74.0,71.8,30.17,South,185,1.0,2.0,93,0.00,,,0.00,130,Wunderground v.1.15,2013-07-02 21:47:00,
2013-07-02 17:52:00,73.7,71.5,30.17,South,188,1.0,1.0,93,0.00,,,0.00,56,Wunderground v.1.15,2013-07-02 21:52:00,
2013-07-02 17:57:00,73.3,71.5,30.17,South,188,1.0,1.0,94,0.00,,,0.00,72,Wunderground v.1.15,2013-07-02 21:57:00,
2013-07-02 18:02:00,73.0,71.2,30.18,SSW,200,1.0,1.0,94,0.00,,,0.00,14,Wunderground v.1.15,2013-07-02 22:02:00,
2013-07-02 18:08:00,72.6,71.1,30.18,SSW,205,1.0,1.0,95,0.00,,,0.00,49,Wunderground v.1.15,2013-07-02 22:08:00,
2013-07-02 18:14:00,72.6,71.4,30.18,SSW,195,0.0,1.0,96,0.00,,,0.00,54,Wunderground v.1.15,2013-07-02 22:14:00,
2013-07-02 18:20:00,72.8,71.6,30.18,South,171,0.0,0.0,96,0.00,,,0.00,77,Wunderground v.1.15,2013-07-02 22:20:00,
2013-07-02 18:26:00,73.1,71.6,30.18,SSW,195,0.0,2.0,95,0.00,,,0.00,77,Wunderground v.1.15,2013-07-02 22:26:00,
2013-07-02 18:32:00,73.1,71.6,30.18,SE,124,0.0,1.0,95,0.00,,,0.00,63,Wunderground v.1.15,2013-07-02 22:32:00,
2013-07-02 18:40:00,73.3,71.8,30.18,South,171,0.0,0.0,95,0.00,,,0.00,77,Wunderground v.1.15,2013-07-02 22:40:00,
2013-07-02 18:48:00,73.4,71.9,30.18,SSW,202,0.0,1.0,95,0.00,,,0.00,60,Wunderground v.1.15,2013-07-02 22:48:00,
2013-07-02 18:54:00,73.5,71.7,30.18,South,182,0.0,0.0,94,0.00,,,0.00,54,Wunderground v.1.15,2013-07-02 22:54:00,
2013-07-02 19:02:00,73.4,71.6,30.19,North,350,0.0,1.0,94,0.00,,,0.00,32,Wunderground v.1.15,2013-07-02 23:02:00,
2013-07-02 19:08:00,73.1,71.3,30.19,South,182,0.0,1.0,94,0.00,,,0.00,30,Wunderground v.1.15,2013-07-02 23:08:00,
2013-07-02 19:15:00,72.8,71.3,30.19,South,173,1.0,1.0,95,0.00,,,0.00,14,Wunderground v.1.15,2013-07-02 23:15:00,
2013-07-02 19:21:00,72.4,70.9,30.19,SSE,157,1.0,1.0,95,0.00,,,0.00,12,Wunderground v.1.15,2013-07-02 23:21:00,
2013-07-02 19:27:00,72.0,70.8,30.19,South,186,1.0,2.0,96,0.00,,,0.00,7,Wunderground v.1.15,2013-07-02 23:27:00,
2013-07-02 19:29:00,71.9,70.7,30.19,SSW,202,1.0,2.0,96,0.00,,,0.00,5,Wunderground v.1.15,2013-07-02 23:29:00,
2013-07-02 19:34:00,71.7,70.5,30.20,SSW,192,0.0,1.0,96,0.00,,,0.00,0,Wunderground v.1.15,2013-07-02 23:34:00,
2013-07-02 19:39:00,71.6,70.4,30.20,WSW,237,0.0,2.0,96,0.00,,,0.00,0,Wunderground v.1.15,2013-07-02 23:39:00,
2013-07-02 19:44:00,71.5,70.6,30.20,SSW,213,0.0,0.0,97,0.00,,,0.00,5,Wunderground v.1.15,2013-07-02 23:44:00,
2013-07-02 19:49:00,71.5,70.6,30.20,SE,135,0.0,0.0,97,0.00,,,0.00,0,Wunderground v.1.15,2013-07-02 23:49:00,
2013-07-02 19:55:00,71.5,70.6,30.20,SSE,166,0.0,1.0,97,0.00,,,0.00,0,Wunderground v.1.15,2013-07-02 23:55:00,
2013-07-02 20:00:00,71.5,70.6,30.20,SSW,192,0.0,0.0,97,0.00,,,0.00,0,Wunderground v.1.15,2013-07-03 00:00:00,
2013-07-02 20:01:00,71.5,70.6,30.20,ESE,118,0.0,0.0,97,0.00,,,0.00,0,Wunderground v.1.15,2013-07-03 00:01:00,
2013-07-02 20:07:00,71.6,70.7,30.20,SE,140,0.0,2.0,97,0.00,,,0.00,0,Wunderground v.1.15,2013-07-03 00:07:00,
2013-07-02 20:13:00,71.7,70.8,30.20,SW,227,0.0,0.0,97,0.00,,,0.00,0,Wunderground v.1.15,2013-07-03 00:13:00,
2013-07-02 20:18:00,71.7,70.5,30.20,South,191,0.0,1.0,96,0.00,,,0.00,0,Wunderground v.1.15,2013-07-03 00:18:00,
2013-07-02 20:25:00,71.7,70.5,30.20,West,277,0.0,1.0,96,0.00,,,0.00,0,Wunderground v.1.15,2013-07-03 00:25:00,
2013-07-02 20:31:00,71.7,70.5,30.20,South,181,0.0,0.0,96,0.00,,,0.00,0,Wunderground v.1.15,2013-07-03 00:31:00,
2013-07-02 20:32:00,71.7,70.5,30.20,South,181,0.0,0.0,96,0.00,,,0.00,0,Wunderground v.1.15,2013-07-03 00:32:00,
2013-07-02 20:39:00,71.6,70.4,30.20,SSE,159,0.0,0.0,96,0.00,,,0.00,0,Wunderground v.1.15,2013-07-03 00:39:00,
2013-07-02 20:46:00,71.6,70.4,30.20,SSE,150,0.0,0.0,96,0.00,,,0.00,0,Wunderground v.1.15,2013-07-03 00:46:00,
2013-07-02 20:54:00,71.6,70.4,30.20,SSW,206,0.0,2.0,96,0.00,,,0.00,0,Wunderground v.1.15,2013-07-03 00:54:00,
2013-07-02 20:59:00,71.6,70.4,30.21,SSE,147,0.0,2.0,96,0.00,,,0.00,0,Wunderground v.1.15,2013-07-03 00:59:00,
2013-07-02 21:03:00,71.6,70.4,30.21,South,188,0.0,0.0,96,0.00,,,0.00,0,Wunderground v.1.15,2013-07-03 01:03:00,
2013-07-02 21:06:00,71.6,70.4,30.21,South,173,0.0,0.0,96,0.00,,,0.00,0,Wunderground v.1.15,2013-07-03 01:06:00,
2013-07-02 21:11:00,71.5,70.3,30.21,South,188,0.0,0.0,96,0.00,,,0.00,0,Wunderground v.1.15,2013-07-03 01:11:00,
2013-07-02 21:15:00,71.5,70.3,30.22,SSE,165,0.0,0.0,96,0.00,,,0.00,0,Wunderground v.1.15,2013-07-03 01:15:00,
2013-07-02 21:21:00,71.5,70.6,30.22,South,173,0.0,1.0,97,0.00,,,0.00,0,Wunderground v.1.15,2013-07-03 01:21:00,
2013-07-02 21:28:00,71.5,70.6,30.22,South,175,0.0,2.0,97,0.00,,,0.00,0,Wunderground v.1.15,2013-07-03 01:28:00,
2013-07-02 21:35:00,71.5,70.6,30.22,SE,131,0.0,3.0,97,0.00,,,0.00,0,Wunderground v.1.15,2013-07-03 01:35:00,
2013-07-02 21:42:00,71.5,70.3,30.22,SSE,153,0.0,0.0,96,0.00,,,0.00,0,Wunderground v.1.15,2013-07-03 01:42:00,
2013-07-02 21:50:00,71.6,70.4,30.22,SSE,153,0.0,0.0,96,0.00,,,0.00,0,Wunderground v.1.15,2013-07-03 01:50:00,
2013-07-02 21:56:00,71.6,70.4,30.22,SSE,155,0.0,1.0,96,0.00,,,0.00,0,Wunderground v.1.15,2013-07-03 01:56:00,
2013-07-02 22:03:00,71.6,70.4,30.22,SSE,159,0.0,2.0,96,0.00,,,0.00,0,Wunderground v.1.15,2013-07-03 02:03:00,
2013-07-02 22:11:00,71.6,70.4,30.22,SSE,167,0.0,0.0,96,0.00,,,0.00,0,Wunderground v.1.15,2013-07-03 02:11:00,
2013-07-02 22:17:00,71.6,70.4,30.22,SW,216,0.0,1.0,96,0.00,,,0.00,0,Wunderground v.1.15,2013-07-03 02:17:00,
2013-07-02 22:24:00,71.5,70.3,30.22,South,174,0.0,0.0,96,0.00,,,0.00,0,Wunderground v.1.15,2013-07-03 02:24:00,
2013-07-02 22:31:00,71.5,70.3,30.22,South,170,0.0,0.0,96,0.00,,,0.00,0,Wunderground v.1.15,2013-07-03 02:31:00,
2013-07-02 22:33:00,71.5,70.3,30.21,SSE,165,0.0,2.0,96,0.00,,,0.00,0,Wunderground v.1.15,2013-07-03 02:33:00,
2013-07-02 22:38:00,71.5,70.3,30.21,SSE,163,0.0,2.0,96,0.00,,,0.00,0,Wunderground v.1.15,2013-07-03 02:38:00,
2013-07-02 22:45:00,71.5,70.3,30.21,South,187,0.0,0.0,96,0.00,,,0.00,0,Wunderground v.1.15,2013-07-03 02:45:00,
2013-07-02 22:47:00,71.5,70.3,30.21,South,186,0.0,0.0,96,0.00,,,0.00,0,Wunderground v.1.15,2013-07-03 02:47:00,
2013-07-02 22:52:00,71.4,70.2,30.21,SSW,208,0.0,1.0,96,0.00,,,0.00,0,Wunderground v.1.15,2013-07-03 02:52:00,
2013-07-02 22:57:00,71.4,70.2,30.21,SE,126,0.0,2.0,96,0.00,,,0.00,0,Wunderground v.1.15,2013-07-03 02:57:00,
2013-07-02 23:06:00,71.4,70.2,30.21,SSW,207,0.0,1.0,96,0.00,,,0.00,0,Wunderground v.1.15,2013-07-03 03:06:00,
2013-07-02 23:11:00,71.5,70.3,30.21,South,177,0.0,0.0,96,0.00,,,0.00,0,Wunderground v.1.15,2013-07-03 03:11:00,
2013-07-02 23:17:00,71.5,70.3,30.21,South,177,0.0,0.0,96,0.00,,,0.00,0,Wunderground v.1.15,2013-07-03 03:17:00,
2013-07-02 23:22:00,71.6,70.4,30.21,SSE,159,0.0,0.0,96,0.00,,,0.00,0,Wunderground v.1.15,2013-07-03 03:22:00,
2013-07-02 23:28:00,71.6,70.4,30.21,SSE,161,0.0,0.0,96,0.00,,,0.00,0,Wunderground v.1.15,2013-07-03 03:28:00,
2013-07-02 23:31:00,71.6,70.4,30.20,East,94,0.0,0.0,96,0.00,,,0.00,0,Wunderground v.1.15,2013-07-03 03:31:00,
2013-07-02 23:37:00,71.7,70.5,30.20,SSE,158,0.0,1.0,96,0.00,,,0.00,0,Wunderground v.1.15,2013-07-03 03:37:00,
2013-07-02 23:43:00,71.7,70.5,30.20,South,174,0.0,2.0,96,0.00,,,0.00,0,Wunderground v.1.15,2013-07-03 03:43:00,
2013-07-02 23:45:00,71.7,70.5,30.20,South,174,0.0,2.0,96,0.00,,,0.00,0,Wunderground v.1.15,2013-07-03 03:45:00,
2013-07-02 23:50:00,71.8,70.6,30.20,SSE,153,0.0,1.0,96,0.00,,,0.00,0,Wunderground v.1.15,2013-07-03 03:50:00,
2013-07-02 23:55:00,71.9,70.7,30.20,SW,216,0.0,1.0,96,0.00,,,0.00,0,Wunderground v.1.15,2013-07-03 03:55:00,